OpenBCM V1.07b12 (Linux)

Packet Radio Mailbox

DB0FHN

[JN59NK Nuernberg]

 Login: GUEST





  
F1EBE  > KEPS     13.04.03 09:14l 105 Lines 5483 Bytes #999 (0) @ EU
BID : 60830_F8KAE
Read: DB0FHN GUEST
Subj: 2Line Orbital Elements #03101.AMSAT
Path: DB0FHN<DB0ZWI<DB0CHZ<DB0ERF<DB0FBB<DB0GOS<ON0AR<ON0AR<WB0TAX<LZ3NP<
      F6CDD<F6GGY<F4CEP<F1HCI<F6KDS<F6BVP<F5KCK<F8KAE
Sent: 030412/0742Z @:F8KAE.FNOR.FRA.EU #:60830 [Vernon-27] 7.00i $:60830_F8KAE
From: F1EBE@F8KAE.FNOR.FRA.EU
To  : KEPS@EU


AO-7                    
1 07530U 74089B   03100.68807414 -.00000029  00000-0  10000-3 0  1959
2 07530 101.7492 147.9733 0012087 340.0722  19.9875 12.53565143299599
AO-10                   
1 14129U 83058B   03091.17918933 -.00000024  00000-0  10000-3 0  9244
2 14129  26.0433 157.4551 6010823 340.2144   4.1663  2.05867447120920
UO-11                   
1 14781U 84021B   03101.19592573  .00001806  00000-0  25647-3 0  1198
2 14781  98.1250  75.5496 0010568  48.6673 311.5437 14.78164624 23864
UO-14                   
1 20437U 90005B   03100.67247932  .00000182  00000-0  84162-4 0  2094
2 20437  98.2658 141.8243 0011799  51.6076 308.6163 14.31256764689808
AO-16                   
1 20439U 90005D   03100.67894207  .00000236  00000-0  10422-3 0  8777
2 20439  98.3066 153.8059 0011889  58.1131 302.1205 14.31494700689840
DO-17                   
1 20440U 90005E   03100.65788836  .00000274  00000-0  11800-3 0  7533
2 20440  98.3272 157.7992 0012142  56.9246 303.3093 14.31774814689919
WO-18                   
1 20441U 90005F   03101.49554290  .00000211  00000-0  94987-4 0   556
2 20441  98.3260 157.7820 0012653  56.6504 303.5890 14.31575929690014
LO-19                   
1 20442U 90005G   03100.69928965  .00000252  00000-0  10992-3 0  9953
2 20442  98.3383 160.1327 0013005  56.3540 303.8874 14.31739799689953
FO-20                   
1 20480U 90013C   03100.92036898 -.00000008  00000-0  61709-4 0  4807
2 20480  99.0554  54.0344 0539475 247.5487 106.7639 12.83331389617106
RS-12/13                
1 21089U 91007A   03100.86451541  .00000083  00000-0  71157-4 0  5201
2 21089  82.9218 143.3304 0029853 140.4572 219.8766 13.74409988610830
UO-22                   
1 21575U 91050B   03100.95615027  .00000429  00000-0  15157-3 0  7786
2 21575  98.1463  90.5127 0007385 347.0051  13.0946 14.39195502615677
KO-23                   
1 22077U 92052B   03100.95612700 -.00000037  00000-0  10000-3 0  2459
2 22077  66.0852  18.1134 0015651 263.3563  96.5673 12.86410421500911
AO-27                   
1 22825U 93061C   03101.49853665  .00000202  00000-0  95857-4 0  5290
2 22825  98.2707 128.5389 0009428 102.4551 257.7689 14.28963280497299
IO-26                   
1 22826U 93061D   03101.52068641  .00000204  00000-0  96373-4 0  3325
2 22826  98.2703 129.6968 0009867 101.4368 258.7929 14.29187983497346
KO-25                   
1 22828U 93061F   03101.13868158  .00000176  00000-0  84936-4 0  4696
2 22828  98.2654 129.5994 0011004  84.0851 276.1582 14.29526875465497
POSAT                   
1 22829U 93061G   03100.64845616  .00000287  00000-0  12745-3 0  4956
2 22829  98.2652 129.7657 0010803  85.5687 274.6736 14.29796955497355
RS-15                   
1 23439U 94085A   03101.53321685 -.00000021  00000-0  61313-3 0  6948
2 23439  64.8170 317.4564 0146490 105.0201 256.6989 11.27548664341458
FO-29                   
1 24278U 96046B   03100.94227517  .00000054  00000-0  87968-4 0  5750
2 24278  98.5442 245.2033 0351486  83.3205 280.7797 13.52878615328250
TO-31                   
1 25396U 98043C   03100.91646419 -.00000043  00000-0  00000-0 0  9058
2 25396  98.6170 176.9899 0002499   6.5508 353.5708 14.23527765246831
GO-32                   
1 25397U 98043D   03100.95831390  .00000125  00000-0  74679-4 0  1630
2 25397  98.6138 175.8473 0001696  31.3882 328.7397 14.22972867246802
SO-33                   
1 25509U 98061B   03100.63511819  .00000446  00000-0  79287-4 0  8218
2 25509  31.4297 224.7682 0357508  28.7717 333.2094 14.27480510232610
PO-34                   
1 25520U 98064B   03100.71179502  .00003142  00000-0  15756-3 0  6586
2 25520  28.4598 243.1330 0006280 190.0194 170.0289 15.14165473245340
ISS           
1 25544U 98067A   03101.82628008  .00015142  00000-0  20389-3 0  8817
2 25544  51.6345 353.5346 0006767  10.8007  74.2311 15.58045834250656
UO-36                   
1 25693U 99021A   03101.36744971  .00000375  00000-0  73384-4 0  8670
2 25693  64.5580 212.2349 0025020 313.4324  46.4671 14.76448730213904
OO-38                   
1 26063U 00004C   03100.71549837  .00000251  00000-0  10691-3 0  7647
2 26063 100.2027 164.5476 0037044 142.1782 218.1999 14.35505776167733
SO-41                   
1 26545U 00057A   03100.79768571  .00001231  00000-0  18190-3 0  4363
2 26545  64.5582 234.4543 0048258 230.5147 129.1694 14.79121806136795
MO-46                   
1 26548U 00057D   03100.47033354  .00001595  00000-0  21869-3 0  4398
2 26548  64.5570 227.7778 0041482 230.7376 129.0014 14.81451933136906
SO-42                   
1 26549U 00057E   03100.87068756  .00001641  00000-0  24092-3 0  7393
2 26549  64.5524 238.6069 0052831 229.8903 129.7559 14.78054979136721
AO-40                   
1 26609U 00072B   03101.06918723 -.00000337  00000-0  10000-3 0  3243
2 26609   8.4684  54.7135 7954739 162.8251 262.9704  1.25597299 11235
NO-44                   
1 26931U 01043C   03100.89306057  .00000244  00000-0  12865-3 0  4474
2 26931  67.0468 123.4825 0005774 273.2922  86.7523 14.29146155 79688
NO-45                   
1 26932U 01043D   03100.93482808  .00000120  00000-0  79578-4 0  4859
2 26932  67.0539 123.0679 0004037 260.3513  99.7132 14.29316088 79713
AO-49                   
1 27605U 02058A   03100.96194929  .00000887  00000-0  16284-3 0  1054
2 27605  64.5500  41.1675 0034875  90.3346 270.1730 14.71457570 16376
SO-50                   
1 27607U 02058C   03100.93910502  .00001393  00000-0  25119-3 0   987
2 27607  64.5497  42.0381 0036223  86.1057 274.4163 14.70027893 16353



Read previous mail | Read next mail


 16.09.2025 19:56:47lGo back Go up